Flag for Romania Weather past 2 weeks in Brăila, Romania

Now
55 °F

Clear.


Feels Like: 55 °F
Forecast: 48 / 76 °F
Wind: 2 mph from Southeast

Location: Galati

Current Time: Apr 25, 2015 at 5:55:53 AM

Latest Report: Apr 25, 2015 at 5:00 AM


Visibility: 13 mi

Pressure: 30.03 "Hg

Humidity: 41%

Dew point: 32 °F

Location of BrăilaLocation

Historic Weather in Brăila — Graph

°F

Brăila temperature yesterday

Maximum temperature yesterday: 73 °F (at 4:00 PM)
Minimum temperature yesterday: 43 °F (at 7:00 AM)
Average temperature yesterday: 58 °F

Past Weeks' High & Low Weather Summary

 TemperatureHumidityPressure
High80 °F (Apr 17, 5:00 PM)93% (Apr 22, 6:00 AM)30.41 "Hg (Apr 22, 6:00 AM)
Low36 °F (Apr 22, 7:00 AM)16% (Apr 11, 5:00 PM)29.71 "Hg (Apr 17, 8:00 PM)
Average55 °F52%30.06 "Hg
* Reported Apr 10 4:00 AM — Apr 25 4:00 AM, Brăila, Weather by CustomWeather, © 2015

Note: Actual official high and low records may vary slightly from our data, if they occured in-between our weather recording intervals... More about our weather records

Advertising

Brăila weather history for previous 24 hours

 ConditionsComfort  
Time TempWeatherWind HumidityBarometerVisibility
4:00 AM
Sat, Apr 25
56 °FClear.2 mph35%30.03 "Hg12 mi
2:00 AM58 °FClear.5 mph40%30.03 "Hg12 mi
1:00 AM58 °FRefreshingly cool.5 mph43%30.03 "HgN/A
11:00 PM
Fri, Apr 24
59 °FPassing clouds.5 mph52%30.03 "Hg12 mi
10:00 PM62 °FPassing clouds.3 mph49%30.03 "Hg12 mi
9:00 PM64 °FPassing clouds.2 mph44%30.01 "Hg12 mi
8:00 PM67 °FScattered clouds.2 mph31%29.99 "Hg12 mi
7:00 PM71 °FPassing clouds.2 mph24%30.00 "Hg12 mi
6:00 PM72 °FSunny.3 mph24%30.01 "Hg12 mi
5:00 PM72 °FSunny.3 mph21%30.02 "Hg12 mi
4:00 PM73 °FSunny.2 mph21%30.03 "Hg12 mi
3:00 PM71 °FSunny.3 mph24%30.05 "Hg12 mi
2:00 PM70 °FSunny.2 mph28%30.06 "Hg12 mi
1:00 PM66 °FSunny.2 mph34%30.08 "Hg12 mi
12:00 PM63 °FSunny.2 mph47%30.09 "Hg12 mi
11:00 AM59 °FSunny.2 mph52%30.09 "Hg12 mi
10:00 AM54 °FSunny.2 mph56%30.08 "Hg12 mi
9:00 AM50 °FSunny.2 mph64%30.08 "Hg12 mi
8:00 AM45 °FSunny.5 mph72%30.07 "Hg12 mi
7:00 AM43 °FSunny.5 mph76%30.06 "Hg12 mi
6:00 AM44 °FClear.5 mph76%30.05 "Hg12 mi
5:00 AM44 °FClear.5 mph76%30.05 "Hg12 mi
Weather by CustomWeather, © 2015

See weather overviewHow to use our weather pages